Location: Diebersbach
(48.5163°N, 8.0558°E)
Time: 13:52:36
(UTC+00:00)

X-37B - Visible Passes

Search period start: 22 October 2021 00:00
Search period end: 01 November 2021 00:00
Orbit: 385 x 389 km, 45.0° (Epoch: 17 October)

Date Brightness Start Highest point End Pass type
(mag) Time Alt. Az. Time Alt. Az. Time Alt. Az.
22 Oct 1.7 18:06:46 10° W 18:09:41 34° SSW 18:10:16 31° SSE visible
23 Oct 1.6 17:08:24 10° W 17:11:26 41° S 17:14:27 10° ESE visible
23 Oct 3.1 18:45:18 10° WSW 18:46:50 17° SW 18:46:50 17° SW visible
24 Oct 2.4 17:46:43 10° WSW 17:49:26 26° SSW 17:51:11 16° SSE visible
25 Oct 2.0 16:48:17 10° W 16:51:13 34° SSW 16:54:08 10° SE visible
25 Oct 3.3 18:25:47 10° WSW 18:27:16 13° SSW 18:27:55 12° SSW visible
26 Oct 3.0 17:26:49 10° WSW 17:29:09 19° SSW 17:31:28 10° SSE visible
28 Oct 3.6 17:07:19 10° WSW 17:08:46 13° SSW 17:10:14 10° S visible
